�N����,����,�~����,�C��,���x,�C��,����,���ϕ���,�ő�u�ԕ���,�ő厞����,���˗�,�I�_���x,�n�����x,�ő啗���N��,DTYPE
"23/08/06","00:10",0.0,29.0,73.2,995.8,92.3,0.8,2.2,102.6,0.00,23.8,26.9,"00:00:48",1
"23/08/06","00:20",0.0,28.9,73.6,995.6,93.9,0.7,2.4,106.4,0.00,23.7,26.8,"00:14:56",1
"23/08/06","00:30",0.0,28.9,74.0,995.6,92.6,0.7,2.1,140.0,0.00,23.8,27.0,"00:24:16",1
"23/08/06","00:40",0.0,28.8,74.3,995.1,83.4,0.8,2.1,107.1,0.00,23.8,26.8,"00:38:16",1
"23/08/06","00:50",0.0,28.8,74.3,995.6,37.3,0.3,1.7,93.2,0.00,23.8,26.8,"00:40:32",1
"23/08/06","01:00",0.0,28.6,74.7,995.3,88.3,1.0,2.4,123.8,0.00,23.7,26.7,"00:54:32",1
"23/08/06","01:10",0.0,28.5,74.9,995.6,57.8,0.6,1.8,54.5,0.00,23.7,26.7,"01:02:08",1
"23/08/06","01:20",0.0,28.4,75.3,995.3,107.5,0.7,1.8,136.5,0.00,23.6,26.7,"01:15:52",1
"23/08/06","01:30",0.0,28.3,75.5,995.6,62.5,0.5,1.6,57.9,0.00,23.6,26.8,"01:23:04",1
"23/08/06","01:40",0.0,28.3,75.8,995.6,23.9,0.5,1.7,100.8,0.00,23.7,26.6,"01:31:04",1
"23/08/06","01:50",0.0,28.2,76.1,995.6,51.0,0.6,1.6,0.4,0.00,23.6,26.6,"01:48:00",1
"23/08/06","02:00",0.0,28.3,76.1,995.6,67.4,0.6,1.6,93.4,0.00,23.7,26.6,"01:50:08",1
"23/08/06","02:10",0.0,28.2,76.2,995.3,69.0,0.7,1.8,99.1,0.00,23.6,26.8,"02:08:56",1
"23/08/06","02:20",0.0,28.1,76.3,995.3,44.8,0.5,1.2,113.1,0.00,23.6,26.7,"02:14:24",1
"23/08/06","02:30",0.0,28.0,76.6,995.3,18.4,0.3,1.0,88.5,0.00,23.5,26.7,"02:27:36",1
"23/08/06","02:40",0.0,27.7,77.0,995.3,34.1,0.2,1.2,20.2,0.00,23.3,26.6,"02:37:52",1
"23/08/06","02:50",0.0,27.6,77.7,995.3,354.3,0.5,2.0,359.2,0.00,23.4,26.6,"02:41:52",1
"23/08/06","03:00",0.0,27.6,78.1,995.1,40.1,0.7,1.8,12.9,0.00,23.5,26.6,"02:57:20",1
"23/08/06","03:10",0.0,27.7,78.1,995.1,53.9,0.6,1.7,37.0,0.00,23.6,26.7,"03:07:28",1
"23/08/06","03:20",0.0,27.6,78.2,995.1,80.7,0.5,1.8,97.8,0.00,23.5,26.5,"03:11:04",1
"23/08/06","03:30",0.0,27.5,78.5,995.1,73.9,0.7,1.6,108.7,0.00,23.5,26.5,"03:29:52",1
"23/08/06","03:40",0.0,27.6,78.6,995.3,25.7,0.6,2.6,105.9,0.00,23.6,26.5,"03:34:08",1
"23/08/06","03:50",0.0,27.6,78.6,995.3,321.6,0.6,1.4,334.0,0.00,23.6,26.4,"03:41:20",1
"23/08/06","04:00",0.0,27.4,78.9,995.6,306.3,0.5,1.1,332.8,0.00,23.5,26.6,"03:52:32",1
"23/08/06","04:10",0.0,27.3,79.7,995.3,99.0,0.5,1.4,123.5,0.00,23.5,26.3,"04:06:16",1
"23/08/06","04:20",0.0,27.4,79.8,995.3,174.3,0.6,2.1,126.5,0.00,23.6,26.2,"04:11:36",1
"23/08/06","04:30",0.0,27.5,79.8,995.3,346.5,0.7,1.7,359.8,0.00,23.7,26.3,"04:25:20",1
"23/08/06","04:40",0.0,27.2,80.3,995.1,336.0,0.8,1.2,340.4,0.00,23.6,26.4,"04:34:32",1
"23/08/06","04:50",0.0,26.9,81.3,995.1,336.5,0.8,1.3,329.9,0.00,23.5,26.4,"04:44:40",1
"23/08/06","05:00",0.0,26.8,82.0,995.1,339.2,1.1,1.4,338.9,0.00,23.5,26.2,"04:50:08",1
"23/08/06","05:10",0.0,26.5,82.5,995.6,308.1,0.7,1.2,326.3,0.00,23.3,26.2,"05:06:08",1
"23/08/06","05:20",0.0,26.4,83.1,995.3,307.5,0.5,1.3,347.6,0.00,23.3,26.3,"05:11:44",1
"23/08/06","05:30",0.0,26.4,83.7,995.6,327.6,0.8,1.4,344.7,0.00,23.5,26.1,"05:20:02",1
"23/08/06","05:40",0.0,26.6,84.2,995.3,348.7,0.8,1.6,345.9,0.00,23.8,26.2,"05:30:56",1
"23/08/06","05:50",0.0,26.6,84.6,995.6,341.0,1.2,2.0,340.9,0.00,23.8,26.0,"05:46:56",1
"23/08/06","06:00",0.0,26.9,84.5,995.6,293.7,0.6,1.9,342.7,0.01,24.1,26.2,"05:53:20",1
"23/08/06","06:10",0.0,27.2,84.2,995.1,327.8,0.7,1.6,323.9,0.02,24.3,26.1,"06:08:56",1
"23/08/06","06:20",0.0,27.5,83.4,995.1,338.2,0.7,1.3,302.0,0.02,24.5,26.1,"06:10:08",1
"23/08/06","06:30",0.0,27.7,82.8,995.3,309.0,0.6,1.2,103.2,0.01,24.5,26.0,"06:28:48",1
"23/08/06","06:40",0.0,28.5,81.7,995.3,113.7,0.6,2.6,114.6,0.06,25.1,25.9,"06:37:44",1
"23/08/06","06:50",0.0,28.8,79.3,995.1,119.3,0.8,2.0,98.8,0.04,24.9,26.1,"06:42:08",1
"23/08/06","07:00",0.0,29.1,77.9,995.1,100.3,0.8,2.2,107.1,0.04,24.9,26.0,"06:51:44",1
"23/08/06","07:10",0.0,29.0,77.4,995.1,98.6,0.8,1.8,94.9,0.04,24.7,26.0,"07:02:40",1
"23/08/06","07:20",0.0,29.7,76.6,994.6,111.1,1.0,2.5,122.2,0.14,25.2,26.0,"07:13:04",1
"23/08/06","07:30",0.0,30.3,74.4,995.1,110.2,1.1,2.8,66.4,0.15,25.3,26.0,"07:24:00",1
"23/08/06","07:40",0.0,30.8,72.1,995.6,129.7,1.3,3.7,114.9,0.18,25.2,26.2,"07:34:40",1
"23/08/06","07:50",0.0,30.8,70.7,995.6,101.6,1.1,2.6,77.7,0.14,24.9,25.9,"07:42:08",1
"23/08/06","08:00",0.0,30.1,71.6,995.3,110.8,1.1,2.5,76.3,0.07,24.4,26.0,"07:54:40",1
"23/08/06","08:10",0.0,29.8,73.0,995.3,87.3,1.1,2.6,80.9,0.04,24.5,26.2,"08:03:44",1
"23/08/06","08:20",0.0,29.3,73.8,994.8,99.5,1.5,3.4,132.8,0.02,24.2,26.3,"08:11:12",1
"23/08/06","08:30",0.0,29.3,74.4,995.1,117.6,1.2,3.1,56.8,0.03,24.3,26.3,"08:24:40",1
"23/08/06","08:40",0.0,29.8,74.5,994.6,136.4,1.5,3.7,136.3,0.13,24.8,26.3,"08:35:52",1
"23/08/06","08:50",0.0,31.5,72.3,995.3,135.7,1.2,3.3,163.7,0.34,25.9,26.3,"08:44:40",1
"23/08/06","09:00",0.0,31.3,70.6,995.6,150.9,1.5,3.1,129.3,0.20,25.4,26.2,"08:52:08",1
"23/08/06","09:10",0.0,31.7,68.2,996.0,120.9,1.5,3.3,181.5,0.25,25.2,26.3,"09:03:36",1
"23/08/06","09:20",0.0,31.5,69.2,996.0,131.4,1.7,3.6,127.6,0.22,25.2,26.5,"09:14:24",1
"23/08/06","09:30",0.0,32.0,67.4,996.7,122.4,1.6,3.1,158.2,0.28,25.2,26.7,"09:20:40",1
"23/08/06","09:40",0.0,32.7,67.3,996.5,136.5,2.0,4.1,158.0,0.42,25.9,26.5,"09:35:52",1
"23/08/06","09:50",0.0,32.5,64.9,997.2,115.4,1.3,3.4,45.0,0.26,25.1,26.3,"09:48:24",1
"23/08/06","10:00",0.0,32.3,66.3,996.7,115.1,1.3,3.2,114.9,0.20,25.2,26.5,"09:59:20",1
"23/08/06","10:10",0.0,32.1,66.1,996.7,121.2,2.0,3.9,137.8,0.21,25.0,26.7,"10:09:04",1
"23/08/06","10:20",0.0,32.0,66.5,996.3,123.4,1.5,4.2,127.0,0.16,25.0,26.8,"10:10:56",1
"23/08/06","10:30",0.0,32.0,67.2,996.0,107.7,1.3,3.1,133.7,0.17,25.2,26.7,"10:20:40",1
"23/08/06","10:40",0.0,31.9,65.0,996.3,152.6,2.2,4.5,143.1,0.18,24.5,26.8,"10:34:48",1
"23/08/06","10:50",0.0,32.7,65.0,996.0,124.9,1.5,3.5,148.4,0.24,25.3,27.0,"10:45:44",1
"23/08/06","11:00",0.0,33.0,63.5,996.0,88.0,1.3,3.5,90.4,0.30,25.2,26.8,"10:55:52",1
"23/08/06","11:10",0.0,33.2,61.3,995.8,116.3,1.5,4.0,129.6,0.23,24.8,26.9,"11:05:04",1
"23/08/06","11:20",0.0,33.1,61.4,995.8,111.8,1.6,4.0,94.9,0.16,24.7,27.0,"11:13:28",1
"23/08/06","11:30",0.0,33.0,60.5,995.8,120.3,2.1,5.2,104.6,0.22,24.4,26.9,"11:29:12",1
"23/08/06","11:40",0.0,33.2,60.6,995.6,137.4,2.0,3.6,177.0,0.23,24.6,27.0,"11:35:44",1
"23/08/06","11:50",0.0,33.2,60.9,995.6,127.8,1.6,3.7,128.2,0.18,24.7,27.1,"11:49:04",1
"23/08/06","12:00",0.0,33.0,61.1,995.6,105.7,1.3,3.7,71.8,0.14,24.5,27.1,"11:59:44",1
"23/08/06","12:10",0.0,32.6,61.9,995.3,94.1,1.8,3.2,90.6,0.13,24.4,27.1,"12:00:40",1
"23/08/06","12:20",0.0,33.0,60.8,994.8,99.1,1.5,5.4,117.4,0.18,24.5,27.1,"12:19:36",1
"23/08/06","12:30",0.0,33.0,60.7,995.1,135.4,2.2,7.9,141.2,0.18,24.4,27.2,"12:29:28",1
"23/08/06","12:40",0.0,33.4,61.5,994.8,111.7,1.6,3.3,99.4,0.21,25.0,27.1,"12:32:00",1
"23/08/06","12:50",0.0,32.7,60.5,995.1,129.9,2.1,4.7,46.6,0.14,24.1,27.2,"12:47:36",1
"23/08/06","13:00",0.0,32.6,61.6,994.6,126.5,1.8,3.6,168.9,0.13,24.3,27.3,"12:57:12",1
"23/08/06","13:10",0.0,33.6,59.7,994.6,102.5,1.5,3.6,168.6,0.29,24.7,27.3,"13:06:48",1
"23/08/06","13:20",0.0,34.4,58.4,995.1,128.3,1.7,5.1,135.9,0.34,25.1,27.3,"13:13:12",1
"23/08/06","13:30",0.0,33.7,58.6,995.1,104.0,1.8,4.5,124.7,0.17,24.5,27.3,"13:24:56",1
"23/08/06","13:40",0.0,33.6,59.0,994.8,87.7,1.6,3.6,112.4,0.21,24.5,27.4,"13:39:28",1
"23/08/06","13:50",0.0,33.7,60.9,994.4,125.5,2.1,4.2,156.8,0.25,25.1,27.4,"13:44:16",1
"23/08/06","14:00",0.0,34.3,58.3,994.6,100.9,1.6,3.3,118.9,0.33,25.0,27.4,"13:54:56",1
"23/08/06","14:10",0.0,33.7,59.1,994.6,95.5,1.6,3.4,122.0,0.15,24.6,27.4,"14:03:36",1
"23/08/06","14:20",0.0,33.2,60.6,994.4,122.8,1.6,3.5,100.1,0.13,24.6,27.5,"14:13:52",1
"23/08/06","14:30",0.0,33.1,60.4,993.9,92.6,1.3,2.8,81.4,0.10,24.4,27.6,"14:21:12",1
"23/08/06","14:40",0.0,33.8,59.9,994.1,96.5,1.7,5.1,104.6,0.25,25.0,27.5,"14:31:36",1
"23/08/06","14:50",0.0,33.8,58.3,994.1,94.2,1.6,3.9,107.1,0.15,24.5,27.4,"14:43:04",1
"23/08/06","15:00",0.0,33.2,59.9,994.4,104.1,1.5,4.4,117.9,0.08,24.4,27.7,"14:56:00",1
"23/08/06","15:10",0.0,33.2,59.7,994.4,102.4,1.8,4.9,63.9,0.15,24.3,27.4,"15:08:16",1
"23/08/06","15:20",0.0,32.8,59.8,994.1,118.6,2.6,6.7,115.9,0.11,24.0,27.6,"15:15:04",1
"23/08/06","15:30",0.0,32.4,60.9,993.4,120.3,2.1,4.4,125.5,0.06,23.9,27.5,"15:28:08",1
"23/08/06","15:40",0.0,32.2,61.7,993.7,123.9,1.7,4.2,111.8,0.06,24.0,27.6,"15:31:36",1
"23/08/06","15:50",0.0,32.4,62.0,993.4,126.8,1.7,3.6,67.5,0.11,24.2,27.5,"15:45:20",1
"23/08/06","16:00",0.0,32.3,61.6,993.7,138.3,2.1,5.1,136.7,0.09,24.0,27.4,"15:53:44",1
"23/08/06","16:10",0.0,32.0,62.1,993.4,126.6,1.7,3.7,171.4,0.04,23.9,27.6,"16:02:40",1
"23/08/06","16:20",0.0,31.9,62.2,993.4,105.2,1.8,3.7,133.3,0.06,23.8,27.5,"16:14:48",1
"23/08/06","16:30",0.0,32.3,61.9,993.4,111.9,1.7,4.9,114.1,0.11,24.1,27.3,"16:26:00",1
"23/08/06","16:40",0.0,32.3,62.0,993.2,108.3,1.3,3.7,117.8,0.07,24.1,27.4,"16:37:52",1
"23/08/06","16:50",0.0,32.2,62.0,993.4,107.5,1.6,4.0,96.7,0.08,24.0,27.5,"16:45:52",1
"23/08/06","17:00",0.0,31.8,63.2,993.2,109.1,1.7,3.4,140.8,0.04,24.0,27.5,"16:50:16",1
"23/08/06","17:10",0.0,31.6,64.6,993.0,148.0,2.0,4.2,144.7,0.03,24.2,27.4,"17:08:56",1
"23/08/06","17:20",0.0,31.7,64.5,993.4,113.7,1.3,3.5,127.2,0.02,24.2,27.4,"17:17:52",1
"23/08/06","17:30",0.0,31.6,65.2,993.2,128.9,1.6,3.9,121.2,0.03,24.3,27.5,"17:23:04",1
"23/08/06","17:40",0.0,31.4,65.1,993.0,129.7,1.5,4.5,122.3,0.03,24.1,27.5,"17:39:44",1
"23/08/06","17:50",0.0,31.3,65.7,992.7,115.6,1.3,3.9,126.5,0.01,24.1,27.2,"17:45:28",1
"23/08/06","18:00",0.0,31.0,65.8,993.0,92.9,1.3,3.6,90.8,0.00,23.9,27.4,"17:51:20",1
"23/08/06","18:10",0.0,31.0,66.2,993.2,123.6,1.6,3.9,134.8,0.01,24.0,27.2,"18:08:56",1
"23/08/06","18:20",0.0,30.8,66.4,992.7,116.0,1.3,3.9,152.2,0.00,23.9,27.3,"18:18:56",1
"23/08/06","18:30",0.0,30.7,66.7,992.5,104.2,1.5,3.5,177.1,0.00,23.8,27.1,"18:22:40",1
"23/08/06","18:40",0.0,30.4,67.1,992.5,109.7,1.6,4.4,149.3,0.00,23.6,27.2,"18:32:48",1
"23/08/06","18:50",0.0,30.2,67.7,993.0,121.8,1.5,2.6,159.7,0.00,23.6,27.2,"18:47:20",1
"23/08/06","19:00",0.0,30.1,68.4,992.5,103.1,1.5,3.5,114.7,0.00,23.7,27.1,"18:50:08",1
"23/08/06","19:10",0.0,30.0,69.0,992.5,100.1,1.2,2.9,79.7,0.00,23.7,27.0,"19:06:16",1
"23/08/06","19:20",0.0,29.8,69.4,992.5,114.7,1.0,2.4,69.6,0.00,23.6,27.0,"19:13:44",1
"23/08/06","19:30",0.0,29.8,70.0,992.5,101.1,1.2,2.6,103.8,0.00,23.8,27.2,"19:26:08",1
"23/08/06","19:40",0.0,29.8,70.3,992.5,93.2,1.2,2.4,137.9,0.00,23.8,27.1,"19:30:40",1
"23/08/06","19:50",0.0,29.7,70.9,993.2,107.9,1.1,2.6,115.5,0.00,23.9,27.1,"19:41:12",1
"23/08/06","20:00",0.0,29.6,71.5,993.2,91.0,0.7,2.5,84.2,0.00,23.9,27.0,"19:59:52",1
"23/08/06","20:10",0.0,29.5,72.0,993.2,98.9,0.8,1.8,102.7,0.00,24.0,26.9,"20:02:48",1
"23/08/06","20:20",0.0,29.6,72.8,993.7,100.5,1.2,3.9,112.6,0.00,24.2,26.7,"20:17:44",1
"23/08/06","20:30",0.0,28.9,75.2,993.7,104.2,1.1,3.2,118.0,0.00,24.1,26.8,"20:26:24",1
"23/08/06","20:40",0.0,28.7,76.6,994.1,119.5,1.0,2.7,94.3,0.00,24.2,26.8,"20:38:56",1
"23/08/06","20:50",0.0,28.7,77.0,994.1,97.4,1.0,3.1,110.2,0.00,24.3,27.0,"20:42:32",1
"23/08/06","21:00",0.0,28.7,77.7,994.4,119.7,0.8,2.2,98.8,0.00,24.5,26.7,"20:52:08",1
"23/08/06","21:10",0.0,28.3,79.0,993.9,82.0,0.7,3.1,134.1,0.00,24.3,26.8,"21:04:40",1
"23/08/06","21:20",0.0,28.2,80.1,994.4,120.5,0.6,2.1,141.6,0.00,24.5,26.8,"21:19:52",1
"23/08/06","21:30",0.0,28.2,80.5,994.4,63.9,0.6,2.2,67.6,0.00,24.6,26.8,"21:22:24",1
"23/08/06","21:40",0.0,28.2,80.4,993.9,149.0,0.5,1.8,104.3,0.00,24.5,26.7,"21:39:28",1
"23/08/06","21:50",0.0,28.3,80.0,994.1,117.2,0.8,2.0,121.0,0.00,24.6,26.7,"21:45:52",1
"23/08/06","22:00",0.0,28.5,79.7,994.4,93.0,0.7,1.7,101.9,0.00,24.7,26.6,"21:58:08",1
"23/08/06","22:10",0.0,28.4,79.6,994.4,111.7,0.7,2.0,72.2,0.00,24.6,26.7,"22:01:20",1
"23/08/06","22:20",0.0,28.4,79.5,994.8,116.4,0.7,2.0,123.8,0.00,24.5,26.8,"22:13:28",1
"23/08/06","22:30",0.0,28.5,79.3,994.4,100.0,0.6,1.7,83.5,0.00,24.6,26.5,"22:24:32",1
"23/08/06","22:40",0.0,28.5,79.0,994.4,100.7,0.7,2.4,120.5,0.00,24.5,26.6,"22:36:32",1
"23/08/06","22:50",0.0,28.5,78.7,994.6,86.9,0.8,2.6,165.5,0.00,24.5,26.6,"22:42:32",1
"23/08/06","23:00",0.0,28.4,78.9,994.8,7.8,0.3,1.9,341.4,0.00,24.4,26.5,"22:51:04",1
"23/08/06","23:10",0.0,28.2,79.1,994.6,90.3,0.6,1.7,183.9,0.00,24.3,26.6,"23:09:04",1
"23/08/06","23:20",0.0,28.2,79.0,994.6,68.6,0.6,2.4,132.6,0.00,24.3,26.7,"23:12:16",1
"23/08/06","23:30",0.0,28.3,79.0,994.6,108.3,0.3,1.0,343.7,0.00,24.3,26.6,"23:26:16",1
"23/08/06","23:40",0.0,28.2,78.8,994.4,106.3,0.6,1.8,81.2,0.00,24.2,26.5,"23:35:04",1
"23/08/06","23:50",0.0,28.3,78.6,994.6,356.3,0.6,1.8,348.8,0.00,24.3,26.4,"23:45:28",1
"23/08/06","24:00",0.0,28.0,78.8,994.6,349.9,0.3,1.1,348.3,0.00,24.0,26.5,"23:52:56",1
